Starlink 31846

operational
NORAD ID: 60126 Int'l Des: 2024-118 Owner: SPXS Country: US Constellation: starlink
LEOCIRCULAR

About Starlink 31846

Description loading...

Live Position

Loading 3D Globe...

Upcoming Passes

Altitude History

Altitude vs Time

uPlot chart will show altitude changes over time

Two-Line Element Set

1 60126U 24118P 25258.88668470 .00000923 00000-0 43294-4 0 9990
2 60126 53.1597 118.6343 0001336 79.3978 280.7173 15.30192700 68931
Epoch: Sep 15, 2025 • Age: 20 hours

Current Status

Altitude 475.0 km
Velocity 7.63 km/s
Sub-Earth Point 11.48°N, 138.36°W
Launch Date Jun 24, 2024
Age 1.2 years
Type internet

Technical Details

Classification Payload
Mass 730.00 kg
Dry Mass 700.00 kg
Total Mass 730.00 kg
Length 0.30 m
Diameter 4.10 m
Span 29.00 m
Shape Box + pan
Manufacturer SPXS
Bus Type Starlink V2M
Phase Status In Orbit
Owner/State SPXS/US

Large Constellations

Loading constellations...